,,Stat5,,Stat1,,Stat2,,Stat3,,Stat4,,Wind1,,Wind1,
time,status,PA1M_AVG,status,PR1M_SUM,status,RH1M_AVG,status,SR1M_AVG,status,TA1M_AVG,status,W1dAve1m,status,W1sAve1m,
2002-03-12, 00:00:01,VALID,919.22,VALID,0,VALID,91.244,VALID,0.0169808,VALID,20.2673,VALID,137,VALID,2.01191,
2002-03-12, 00:01:01,VALID,919.222,VALID,0,VALID,90.7226,VALID,0.0169808,VALID,20.3446,VALID,119,VALID,1.78846,
2002-03-12, 00:02:01,VALID,919.209,VALID,0,VALID,90.2903,VALID,0.0169808,VALID,20.4514,VALID,127,VALID,1.79805,
2002-03-12, 00:03:01,VALID,919.188,VALID,0,VALID,90.0881,VALID,0,VALID,20.4964,VALID,125,VALID,1.69872,
2002-03-12, 00:04:01,VALID,919.175,VALID,0,VALID,90.0105,VALID,0.0509425,VALID,20.5322,VALID,119,VALID,1.63775,
2002-03-12, 00:05:01,VALID,919.16,VALID,0,VALID,90.1987,VALID,0.0339617,VALID,20.4964,VALID,124,VALID,1.3271,
2002-03-12, 00:06:01,VALID,919.152,VALID,0,VALID,90.4594,VALID,0.0339617,VALID,20.4544,VALID,138,VALID,1.64543,
2002-03-12, 00:07:01,VALID,919.143,VALID,0,VALID,90.5001,VALID,0.0339617,VALID,20.4288,VALID,134,VALID,1.74844,
2002-03-12, 00:08:01,VALID,919.153,VALID,0,VALID,90.3742,VALID,0,VALID,20.3965,VALID,147,VALID,2.22255,
2002-03-12, 00:09:01,VALID,919.156,VALID,0,VALID,90.0118,VALID,0.0509425,VALID,20.4256,VALID,126,VALID,1.39523,
2002-03-12, 00:10:01,VALID,919.17,VALID,0,VALID,89.9558,VALID,0.0679233,VALID,20.4445,VALID,123,VALID,2.07232,
2002-03-12, 00:11:01,VALID,919.165,VALID,0,VALID,89.9851,VALID,0,VALID,20.4576,VALID,132,VALID,1.71453,
2002-03-12, 00:12:01,VALID,919.166,VALID,0,VALID,89.9215,VALID,0.0509425,VALID,20.4542,VALID,141,VALID,1.50699,
2002-03-12, 00:13:01,VALID,919.162,VALID,0,VALID,89.8707,VALID,0.0339617,VALID,20.4482,VALID,107,VALID,0.895354,
2002-03-12, 00:14:00,VALID,919.136,VALID,0,VALID,89.8109,VALID,0.0509425,VALID,20.4219,VALID,118,VALID,1.30122,
2002-03-12, 00:15:00,VALID,919.121,VALID,0,VALID,89.5591,VALID,0.0509425,VALID,20.4119,VALID,139,VALID,1.58093,
2002-03-12, 00:16:00,VALID,919.114,VALID,0,VALID,89.3518,VALID,0,VALID,20.4353,VALID,116,VALID,1.80284,
2002-03-12, 00:17:00,VALID,919.115,VALID,0,VALID,89.3404,VALID,0.0339617,VALID,20.4547,VALID,103,VALID,1.86782,
2002-03-12, 00:18:00,VALID,919.111,VALID,0,VALID,89.3442,VALID,0.0339617,VALID,20.4576,VALID,116,VALID,1.65175,
2002-03-12, 00:19:00,VALID,919.097,VALID,0,VALID,89.3213,VALID,0.0509425,VALID,20.4574,VALID,115,VALID,1.82669,
2002-03-12, 00:20:00,VALID,919.064,VALID,0,VALID,89.2336,VALID,0.0169808,VALID,20.4867,VALID,112,VALID,1.23079,
2002-03-12, 00:21:00,VALID,919.059,VALID,0,VALID,89.3353,VALID,0.0169808,VALID,20.4708,VALID,117,VALID,1.85402,
2002-03-12, 00:22:00,VALID,919.036,VALID,0,VALID,89.273,VALID,0.0339617,VALID,20.4741,VALID,118,VALID,1.56585,
2002-03-12, 00:23:00,VALID,919.03,VALID,0,VALID,89.3366,VALID,0.0339617,VALID,20.487,VALID,111,VALID,1.7268,
2002-03-12, 00:24:00,VALID,919.034,VALID,0,VALID,89.4815,VALID,0.0339617,VALID,20.4838,VALID,114,VALID,1.84049,
2002-03-12, 00:25:00,VALID,919.041,VALID,0,VALID,89.5693,VALID,0.0339617,VALID,20.4646,VALID,102,VALID,1.32669,
2002-03-12, 00:26:00,VALID,919.052,VALID,0,VALID,89.9139,VALID,0.0509425,VALID,20.4156,VALID,120,VALID,1.62841,
2002-03-12, 00:27:00,VALID,919.036,VALID,0,VALID,89.9546,VALID,0.0509425,VALID,20.393,VALID,114,VALID,1.71738,
2002-03-12, 00:28:00,VALID,919.062,VALID,0,VALID,90.0576,VALID,0.0339617,VALID,20.3674,VALID,121,VALID,1.75692,
2002-03-12, 00:29:00,VALID,919.049,VALID,0,VALID,90.0614,VALID,0.0169808,VALID,20.3572,VALID,117,VALID,1.94785,
2002-03-12, 00:30:00,VALID,919.038,VALID,0,VALID,90.0105,VALID,0.0679233,VALID,20.3739,VALID,108,VALID,1.8171,
2002-03-12, 00:31:00,VALID,919.019,VALID,0,VALID,89.9355,VALID,0.0339617,VALID,20.3674,VALID,120,VALID,1.89821,
2002-03-12, 00:32:00,VALID,918.988,VALID,0,VALID,89.8783,VALID,0.0169808,VALID,20.3505,VALID,114,VALID,1.81831,
2002-03-12, 00:33:00,VALID,918.965,VALID,0,VALID,89.9279,VALID,0,VALID,20.3381,VALID,121,VALID,1.74726,
2002-03-12, 00:34:00,VALID,918.955,VALID,0,VALID,89.98,VALID,0.0509425,VALID,20.3344,VALID,117,VALID,1.54379,
2002-03-12, 00:35:00,VALID,918.938,VALID,0,VALID,90.1123,VALID,0,VALID,20.3252,VALID,116,VALID,1.45513,
2002-03-12, 00:36:00,VALID,918.934,VALID,0,VALID,89.9533,VALID,0.0339617,VALID,20.3222,VALID,127,VALID,1.28806,
2002-03-12, 00:37:00,VALID,918.948,VALID,0,VALID,89.526,VALID,0.0169808,VALID,20.3058,VALID,106,VALID,1.61648,
2002-03-12, 00:38:00,VALID,918.938,VALID,0,VALID,89.1115,VALID,0.0339617,VALID,20.3642,VALID,114,VALID,1.91645,
2002-03-12, 00:39:00,VALID,918.936,VALID,0,VALID,88.8216,VALID,0.0169808,VALID,20.4186,VALID,117,VALID,1.33676,
2002-03-12, 00:40:00,VALID,918.918,VALID,0,VALID,88.496,VALID,0,VALID,20.4681,VALID,116,VALID,1.92228,
2002-03-12, 00:41:00,VALID,918.896,VALID,0,VALID,88.1425,VALID,-0.0679233,VALID,20.5241,VALID,116,VALID,1.63516,
2002-03-12, 00:42:00,VALID,918.89,VALID,0,VALID,88.1019,VALID,-0.0849042,VALID,20.5691,VALID,99,VALID,1.72991,
2002-03-12, 00:43:00,VALID,918.858,VALID,0,VALID,88.1731,VALID,-0.0849042,VALID,20.5683,VALID,106,VALID,1.65329,
2002-03-12, 00:44:00,VALID,918.834,VALID,0,VALID,88.2087,VALID,-0.0849042,VALID,20.6016,VALID,102,VALID,1.67656,
2002-03-12, 00:45:00,VALID,918.815,VALID,0,VALID,87.8691,VALID,-0.101885,VALID,20.6111,VALID,108,VALID,2.32768,
2002-03-12, 00:46:00,VALID,918.809,VALID,0,VALID,87.3313,VALID,-0.0679233,VALID,20.6951,VALID,110,VALID,1.81971,
2002-03-12, 00:47:00,VALID,918.802,VALID,0,VALID,87.2791,VALID,-0.0339617,VALID,20.7269,VALID,125,VALID,1.90456,
2002-03-12, 00:48:00,VALID,918.782,VALID,0,VALID,87.2778,VALID,-0.0509425,VALID,20.74,VALID,120,VALID,1.39803,
2002-03-12, 00:49:00,VALID,918.759,VALID,0,VALID,87.4711,VALID,-0.0849042,VALID,20.7306,VALID,117,VALID,1.49598,
2002-03-12, 00:50:00,VALID,918.756,VALID,0,VALID,87.7967,VALID,-0.0849042,VALID,20.6883,VALID,118,VALID,1.91326,
2002-03-12, 00:51:00,VALID,918.75,VALID,0,VALID,88.1311,VALID,-0.0509425,VALID,20.6434,VALID,125,VALID,1.66619,
2002-03-12, 00:52:00,VALID,918.733,VALID,0,VALID,88.4782,VALID,-0.0339617,VALID,20.5984,VALID,110,VALID,1.71766,
2002-03-12, 00:53:00,VALID,918.709,VALID,0,VALID,88.7491,VALID,-0.0849042,VALID,20.5499,VALID,102,VALID,1.40543,
2002-03-12, 00:54:00,VALID,918.695,VALID,0,VALID,88.8089,VALID,-0.0849042,VALID,20.5203,VALID,128,VALID,1.87159,
2002-03-12, 00:55:00,VALID,918.679,VALID,0,VALID,88.833,VALID,-0.0339617,VALID,20.5074,VALID,130,VALID,1.30938,
2002-03-12, 00:56:00,VALID,918.664,VALID,0,VALID,88.9017,VALID,0,VALID,20.498,VALID,137,VALID,1.1808,
2002-03-12, 00:57:00,VALID,918.638,VALID,0,VALID,88.964,VALID,-0.0169808,VALID,20.4716,VALID,147,VALID,1.5171,
2002-03-12, 00:58:00,VALID,918.609,VALID,0,VALID,88.9348,VALID,-0.0339617,VALID,20.456,VALID,129,VALID,1.32353,
2002-03-12, 00:59:00,VALID,918.599,VALID,0,VALID,88.9322,VALID,-0.0339617,VALID,20.4328,VALID,143,VALID,1.4558,
2002-03-12, 01:00:00,VALID,918.578,VALID,0,VALID,88.8788,VALID,-0.0169808,VALID,20.4361,VALID,142,VALID,1.16006,
2002-03-12, 01:01:00,VALID,918.567,VALID,0,VALID,88.7504,VALID,-0.0169808,VALID,20.446,VALID,127,VALID,1.26225,
2002-03-12, 01:02:00,VALID,918.564,VALID,0,VALID,88.5825,VALID,0,VALID,20.452,VALID,124,VALID,1.38055,
2002-03-12, 01:03:00,VALID,918.548,VALID,0,VALID,88.2951,VALID,0.0169808,VALID,20.4651,VALID,129,VALID,1.40982,
2002-03-12, 01:04:00,VALID,918.54,VALID,0,VALID,88.0815,VALID,-0.0169808,VALID,20.5012,VALID,109,VALID,1.45773,
2002-03-12, 01:05:00,VALID,918.512,VALID,0,VALID,88.0256,VALID,-0.0339617,VALID,20.5071,VALID,111,VALID,1.2474,
2002-03-12, 01:06:00,VALID,918.499,VALID,0,VALID,87.9887,VALID,-0.0339617,VALID,20.4974,VALID,109,VALID,1.47331,
2002-03-12, 01:07:00,VALID,918.486,VALID,0,VALID,87.8348,VALID,-0.0169808,VALID,20.5141,VALID,120,VALID,1.21793,
2002-03-12, 01:08:00,VALID,918.484,VALID,0,VALID,87.6771,VALID,0,VALID,20.527,VALID,123,VALID,1.60236,
2002-03-12, 01:09:00,VALID,918.479,VALID,0,VALID,87.0655,VALID,-0.0169808,VALID,20.5594,VALID,133,VALID,1.86152,
2002-03-12, 01:10:00,VALID,918.473,VALID,0,VALID,86.3178,VALID,-0.0509425,VALID,20.6628,VALID,115,VALID,1.74621,
2002-03-12, 01:11:00,VALID,918.479,VALID,0,VALID,85.8727,VALID,-0.0339617,VALID,20.7667,VALID,107,VALID,1.36339,
2002-03-12, 01:12:00,VALID,918.464,VALID,0,VALID,85.5777,VALID,-0.0169808,VALID,20.8276,VALID,116,VALID,1.59076,
2002-03-12, 01:13:00,VALID,918.463,VALID,0,VALID,85.4226,VALID,-0.0169808,VALID,20.8723,VALID,121,VALID,1.55647,
2002-03-12, 01:14:00,VALID,918.439,VALID,0,VALID,85.2318,VALID,0,VALID,20.8919,VALID,113,VALID,1.16747,
2002-03-12, 01:15:00,VALID,918.426,VALID,0,VALID,84.8605,VALID,0,VALID,20.9275,VALID,102,VALID,1.28526,
2002-03-12, 01:16:00,VALID,918.408,VALID,0,VALID,84.8453,VALID,-0.0339617,VALID,20.973,VALID,116,VALID,1.48828,
2002-03-12, 01:17:00,VALID,918.394,VALID,0,VALID,85.0665,VALID,0,VALID,20.97,VALID,117,VALID,1.32143,
2002-03-12, 01:18:00,VALID,918.378,VALID,0,VALID,85.3043,VALID,-0.0849042,VALID,20.9442,VALID,123,VALID,1.54026,
2002-03-12, 01:19:00,VALID,918.376,VALID,0,VALID,85.626,VALID,-0.0509425,VALID,20.8887,VALID,121,VALID,1.28954,
2002-03-12, 01:20:00,VALID,918.357,VALID,0,VALID,85.9846,VALID,-0.0339617,VALID,20.8338,VALID,114,VALID,1.24696,
2002-03-12, 01:21:00,VALID,918.367,VALID,0,VALID,86.4004,VALID,-0.0339617,VALID,20.7656,VALID,108,VALID,1.04585,
2002-03-12, 01:22:00,VALID,918.371,VALID,0,VALID,86.5607,VALID,-0.0509425,VALID,20.6946,VALID,119,VALID,1.51362,
2002-03-12, 01:23:00,VALID,918.353,VALID,0,VALID,86.3737,VALID,-0.0849042,VALID,20.7048,VALID,130,VALID,1.79219,
2002-03-12, 01:24:00,VALID,918.348,VALID,0,VALID,86.5022,VALID,-0.0339617,VALID,20.7075,VALID,134,VALID,1.40246,
2002-03-12, 01:25:00,VALID,918.337,VALID,0,VALID,86.7056,VALID,-0.0339617,VALID,20.6946,VALID,144,VALID,1.46284,
2002-03-12, 01:26:00,VALID,918.319,VALID,0,VALID,86.8798,VALID,-0.0169808,VALID,20.669,VALID,118,VALID,1.24288,
2002-03-12, 01:27:00,VALID,918.323,VALID,0,VALID,87.2575,VALID,0,VALID,20.6076,VALID,90,VALID,1.26429,
2002-03-12, 01:28:00,VALID,918.31,VALID,0,VALID,87.5627,VALID,-0.0169808,VALID,20.5556,VALID,113,VALID,1.60657,
2002-03-12, 01:29:00,VALID,918.29,VALID,0,VALID,87.6072,VALID,-0.0509425,VALID,20.5464,VALID,130,VALID,1.43095,
2002-03-12, 01:30:00,VALID,918.276,VALID,0,VALID,87.6898,VALID,-0.0339617,VALID,20.5201,VALID,120,VALID,0.884868,
2002-03-12, 01:31:00,VALID,918.252,VALID,0,VALID,87.8221,VALID,0,VALID,20.484,VALID,112,VALID,0.822545,
2002-03-12, 01:32:00,VALID,918.252,VALID,0,VALID,88.0103,VALID,-0.0169808,VALID,20.4355,VALID,136,VALID,1.66526,
2002-03-12, 01:33:00,VALID,918.231,VALID,0,VALID,87.7992,VALID,0,VALID,20.4557,VALID,145,VALID,1.8125,
2002-03-12, 01:34:00,VALID,918.214,VALID,0,VALID,87.3643,VALID,-0.0169808,VALID,20.5106,VALID,133,VALID,1.82227,
2002-03-12, 01:35:00,VALID,918.197,VALID,0,VALID,87.1329,VALID,-0.0339617,VALID,20.5521,VALID,121,VALID,1.25925,
2002-03-12, 01:36:00,VALID,918.185,VALID,0,VALID,87.1532,VALID,-0.0509425,VALID,20.5591,VALID,130,VALID,1.2474,
2002-03-12, 01:37:00,VALID,918.173,VALID,0,VALID,87.2372,VALID,-0.0339617,VALID,20.54,VALID,138,VALID,1.06621,
2002-03-12, 01:38:00,VALID,918.154,VALID,0,VALID,87.3898,VALID,-0.0339617,VALID,20.5265,VALID,123,VALID,0.932589,
2002-03-12, 01:39:00,VALID,918.145,VALID,0,VALID,87.5627,VALID,-0.0169808,VALID,20.4972,VALID,107,VALID,1.29075,
2002-03-12, 01:40:00,VALID,918.129,VALID,0,VALID,87.6835,VALID,0,VALID,20.4684,VALID,146,VALID,1.26218,
2002-03-12, 01:41:00,VALID,918.123,VALID,0,VALID,87.7572,VALID,0,VALID,20.446,VALID,133,VALID,1.43839,
2002-03-12, 01:42:00,VALID,918.113,VALID,0,VALID,87.6326,VALID,-0.0339617,VALID,20.4694,VALID,139,VALID,1.04447,
2002-03-12, 01:43:00,VALID,918.103,VALID,0,VALID,87.6644,VALID,-0.0339617,VALID,20.4522,VALID,160,VALID,1.11529,
2002-03-12, 01:44:00,VALID,918.116,VALID,0,VALID,87.7305,VALID,-0.0339617,VALID,20.439,VALID,150,VALID,1.29688,
2002-03-12, 01:45:00,VALID,918.102,VALID,0,VALID,87.8488,VALID,-0.0339617,VALID,20.4172,VALID,129,VALID,0.491964,
2002-03-12, 01:46:00,VALID,918.084,VALID,0,VALID,88.0345,VALID,-0.0339617,VALID,20.3881,VALID,127,VALID,0.88101,
2002-03-12, 01:47:00,VALID,918.088,VALID,0,VALID,88.5075,VALID,0,VALID,20.3391,VALID,135,VALID,0.8009,
2002-03-12, 01:48:00,VALID,918.079,VALID,0,VALID,88.7605,VALID,0,VALID,20.2939,VALID,128,VALID,0.533203,
2002-03-12, 01:49:00,VALID,918.077,VALID,0,VALID,88.9475,VALID,-0.0169808,VALID,20.2425,VALID,132,VALID,0.834704,
2002-03-12, 01:50:00,VALID,918.065,VALID,0,VALID,89.3391,VALID,-0.0169808,VALID,20.1746,VALID,130,VALID,1.15645,
2002-03-12, 01:51:00,VALID,918.066,VALID,0,VALID,89.7079,VALID,0.0169808,VALID,20.1167,VALID,125,VALID,1.32168,
2002-03-12, 01:52:00,VALID,918.066,VALID,0,VALID,89.7626,VALID,-0.0169808,VALID,20.0906,VALID,131,VALID,1.03415,
2002-03-12, 01:53:00,VALID,918.051,VALID,0,VALID,89.7982,VALID,-0.0339617,VALID,20.0812,VALID,127,VALID,1.07496,
2002-03-12, 01:54:00,VALID,918.028,VALID,0,VALID,89.6748,VALID,0,VALID,20.1075,VALID,122,VALID,0.999311,
2002-03-12, 01:55:00,VALID,918.022,VALID,0,VALID,89.6011,VALID,0.0169808,VALID,20.1055,VALID,124,VALID,1.21362,
2002-03-12, 01:56:00,VALID,918.007,VALID,0,VALID,89.4612,VALID,0.0509425,VALID,20.1443,VALID,145,VALID,1.47756,
2002-03-12, 01:57:00,VALID,917.991,VALID,0,VALID,89.2857,VALID,0.0679233,VALID,20.1803,VALID,146,VALID,1.36064,
2002-03-12, 01:58:00,VALID,917.982,VALID,0,VALID,89.2412,VALID,0.0849042,VALID,20.1833,VALID,147,VALID,1.41776,
2002-03-12, 01:59:00,VALID,917.977,VALID,0,VALID,89.3162,VALID,0.0339617,VALID,20.1835,VALID,144,VALID,1.77232,
2002-03-12, 02:00:00,VALID,917.973,VALID,0,VALID,89.3175,VALID,0.0169808,VALID,20.1992,VALID,151,VALID,1.85216,
2002-03-12, 02:01:00,VALID,917.956,VALID,0,VALID,89.1776,VALID,0.0679233,VALID,20.2318,VALID,144,VALID,1.61174,
2002-03-12, 02:02:00,VALID,917.93,VALID,0,VALID,89.0543,VALID,0.0509425,VALID,20.2675,VALID,128,VALID,1.36523,
2002-03-12, 02:03:00,VALID,917.926,VALID,0,VALID,89.0695,VALID,0.0339617,VALID,20.2608,VALID,133,VALID,1.35136,
2002-03-12, 02:04:00,VALID,917.918,VALID,0,VALID,89.1547,VALID,0.0339617,VALID,20.235,VALID,135,VALID,1.13582,
2002-03-12, 02:05:00,VALID,917.915,VALID,0,VALID,89.315,VALID,0.0339617,VALID,20.2027,VALID,122,VALID,1.16699,
2002-03-12, 02:06:00,VALID,917.917,VALID,0,VALID,89.5527,VALID,0,VALID,20.1868,VALID,122,VALID,1.36741,
2002-03-12, 02:07:00,VALID,917.906,VALID,0,VALID,89.7473,VALID,0.0339617,VALID,20.1545,VALID,148,VALID,1.45798,
2002-03-12, 02:08:00,VALID,917.877,VALID,0,VALID,89.8045,VALID,0.0169808,VALID,20.1348,VALID,132,VALID,1.29205,
2002-03-12, 02:09:00,VALID,917.85,VALID,0,VALID,89.8694,VALID,0.0169808,VALID,20.1052,VALID,130,VALID,1.13705,
2002-03-12, 02:10:00,VALID,917.825,VALID,0,VALID,90.0728,VALID,-0.0169808,VALID,20.0842,VALID,153,VALID,1.03185,
2002-03-12, 02:11:00,VALID,917.787,VALID,0,VALID,90.256,VALID,-0.0679233,VALID,20.0685,VALID,147,VALID,1.78864,
2002-03-12, 02:12:00,VALID,917.765,VALID,0,VALID,90.2572,VALID,-0.101885,VALID,20.0548,VALID,141,VALID,1.84478,
2002-03-12, 02:13:00,VALID,917.745,VALID,0,VALID,90.3818,VALID,-0.0679233,VALID,20.0518,VALID,146,VALID,1.87612,
2002-03-12, 02:14:00,VALID,917.716,VALID,0,VALID,90.4035,VALID,-0.0509425,VALID,20.0653,VALID,155,VALID,2.07352,
2002-03-12, 02:15:00,VALID,917.713,VALID,0,VALID,90.3488,VALID,-0.0509425,VALID,20.0881,VALID,150,VALID,1.90578,
2002-03-12, 02:16:00,VALID,917.72,VALID,0,VALID,90.2165,VALID,-0.0509425,VALID,20.0909,VALID,131,VALID,1.69336,
2002-03-12, 02:17:00,VALID,917.714,VALID,0,VALID,90.0067,VALID,-0.0679233,VALID,20.1334,VALID,146,VALID,1.21402,
2002-03-12, 02:18:00,VALID,917.709,VALID,0,VALID,90.0817,VALID,-0.0169808,VALID,20.1192,VALID,146,VALID,1.67768,
2002-03-12, 02:19:00,VALID,917.694,VALID,0,VALID,90.1021,VALID,-0.0339617,VALID,20.1202,VALID,147,VALID,2.16016,
2002-03-12, 02:20:00,VALID,917.677,VALID,0,VALID,90.0245,VALID,-0.0509425,VALID,20.1105,VALID,144,VALID,1.63951,
2002-03-12, 02:21:00,VALID,917.665,VALID,0,VALID,89.9876,VALID,-0.101885,VALID,20.1103,VALID,142,VALID,1.72213,
2002-03-12, 02:22:00,VALID,917.644,VALID,0,VALID,90.0105,VALID,-0.0509425,VALID,20.1202,VALID,147,VALID,1.8426,
2002-03-12, 02:23:00,VALID,917.632,VALID,0,VALID,90.1186,VALID,-0.0679233,VALID,20.1068,VALID,141,VALID,2.08326,
2002-03-12, 02:24:00,VALID,917.613,VALID,0,VALID,90.158,VALID,-0.0509425,VALID,20.1135,VALID,156,VALID,2.20132,
2002-03-12, 02:25:00,VALID,917.589,VALID,0,VALID,90.1835,VALID,-0.0849042,VALID,20.1172,VALID,144,VALID,2.02766,
2002-03-12, 02:26:00,VALID,917.584,VALID,0,VALID,90.2051,VALID,-0.0849042,VALID,20.1108,VALID,139,VALID,1.1544,
2002-03-12, 02:27:00,VALID,917.586,VALID,0,VALID,90.4238,VALID,-0.0509425,VALID,20.0847,VALID,144,VALID,1.98304,
2002-03-12, 02:28:00,VALID,917.574,VALID,0,VALID,90.4785,VALID,-0.0849042,VALID,20.0752,VALID,132,VALID,1.52985,
2002-03-12, 02:29:00,VALID,917.564,VALID,0,VALID,90.523,VALID,-0.0849042,VALID,20.065,VALID,139,VALID,1.50687,
2002-03-12, 02:30:00,VALID,917.564,VALID,0,VALID,90.6463,VALID,-0.101885,VALID,20.0524,VALID,142,VALID,1.52582,
2002-03-12, 02:31:00,VALID,917.552,VALID,0,VALID,90.6374,VALID,-0.0849042,VALID,20.0521,VALID,141,VALID,1.58676,
2002-03-12, 02:32:00,VALID,917.562,VALID,0,VALID,90.6463,VALID,-0.0509425,VALID,20.0489,VALID,141,VALID,2.01563,
2002-03-12, 02:33:00,VALID,917.569,VALID,0,VALID,90.6743,VALID,-0.0679233,VALID,20.0461,VALID,139,VALID,1.60332,
2002-03-12, 02:34:00,VALID,917.568,VALID,0,VALID,90.7481,VALID,-0.0849042,VALID,20.0432,VALID,129,VALID,1.39152,
2002-03-12, 02:35:00,VALID,917.564,VALID,0,VALID,90.7977,VALID,-0.0679233,VALID,20.0198,VALID,131,VALID,1.30891,
2002-03-12, 02:36:00,VALID,917.557,VALID,0,VALID,90.9363,VALID,-0.101885,VALID,20.0141,VALID,135,VALID,1.35593,
2002-03-12, 02:37:00,VALID,917.555,VALID,0,VALID,91.0532,VALID,-0.101885,VALID,19.9979,VALID,149,VALID,1.59442,
2002-03-12, 02:38:00,VALID,917.547,VALID,0,VALID,91.1321,VALID,-0.0679233,VALID,19.9845,VALID,143,VALID,1.46975,
2002-03-12, 02:39:00,VALID,917.544,VALID,0,VALID,91.141,VALID,-0.0509425,VALID,19.9877,VALID,141,VALID,1.31271,
2002-03-12, 02:40:00,VALID,917.536,VALID,0,VALID,91.1817,VALID,-0.0169808,VALID,19.9654,VALID,135,VALID,1.3382,
2002-03-12, 02:41:00,VALID,917.543,VALID,0,VALID,91.272,VALID,-0.0169808,VALID,19.9366,VALID,138,VALID,1.28304,
2002-03-12, 02:42:00,VALID,917.524,VALID,0,VALID,91.3025,VALID,0,VALID,19.9162,VALID,133,VALID,1.26242,
2002-03-12, 02:43:00,VALID,917.529,VALID,0,VALID,91.3762,VALID,-0.0169808,VALID,19.9231,VALID,128,VALID,1.79214,
2002-03-12, 02:44:00,VALID,917.52,VALID,0,VALID,91.3521,VALID,0,VALID,19.9,VALID,124,VALID,1.38346,
2002-03-12, 02:45:00,VALID,917.5,VALID,0,VALID,91.4652,VALID,0,VALID,19.8906,VALID,110,VALID,1.69326,
2002-03-12, 02:46:00,VALID,917.488,VALID,0,VALID,91.6318,VALID,-0.0169808,VALID,19.862,VALID,114,VALID,1.22476,
2002-03-12, 02:47:00,VALID,917.466,VALID,0,VALID,91.7882,VALID,-0.0509425,VALID,19.8302,VALID,122,VALID,1.29824,
2002-03-12, 02:48:00,VALID,917.445,VALID,0,VALID,91.9917,VALID,0,VALID,19.7678,VALID,138,VALID,1.36674,
2002-03-12, 02:49:00,VALID,917.438,VALID,0,VALID,92.0756,VALID,-0.0169808,VALID,19.7457,VALID,122,VALID,1.20904,
2002-03-12, 02:50:00,VALID,917.416,VALID,0,VALID,92.2587,VALID,0.0169808,VALID,19.7226,VALID,112,VALID,1.77895,
2002-03-12, 02:51:00,VALID,917.412,VALID,0,VALID,92.3109,VALID,-0.0169808,VALID,19.7032,VALID,112,VALID,1.14509,
2002-03-12, 02:52:00,VALID,917.402,VALID,0,VALID,92.335,VALID,-0.0339617,VALID,19.6875,VALID,120,VALID,1.52825,
2002-03-12, 02:53:00,VALID,917.395,VALID,0,VALID,92.4304,VALID,-0.0339617,VALID,19.6612,VALID,99,VALID,1.14724,
2002-03-12, 02:54:00,VALID,917.396,VALID,0,VALID,92.6644,VALID,0,VALID,19.6227,VALID,102,VALID,1.25761,
2002-03-12, 02:55:00,VALID,917.389,VALID,0,VALID,92.8818,VALID,0,VALID,19.5968,VALID,136,VALID,1.43728,
2002-03-12, 02:56:00,VALID,917.368,VALID,0,VALID,92.939,VALID,-0.0169808,VALID,19.5777,VALID,127,VALID,1.33574,
2002-03-12, 02:57:00,VALID,917.345,VALID,0,VALID,92.9187,VALID,-0.0169808,VALID,19.5516,VALID,102,VALID,1.34564,
2002-03-12, 02:58:00,VALID,917.334,VALID,0,VALID,93.1094,VALID,0,VALID,19.5581,VALID,114,VALID,1.66688,
2002-03-12, 02:59:00,VALID,917.317,VALID,0,VALID,92.8767,VALID,0,VALID,19.568,VALID,120,VALID,1.10567,
2002-03-12, 03:00:00,VALID,917.314,VALID,0,VALID,92.9187,VALID,-0.0169808,VALID,19.5616,VALID,142,VALID,1.3155,
2002-03-12, 03:01:00,VALID,917.302,VALID,0,VALID,92.967,VALID,0,VALID,19.5417,VALID,138,VALID,1.44727,
2002-03-12, 03:02:00,VALID,917.299,VALID,0,VALID,92.8106,VALID,-0.0169808,VALID,19.5486,VALID,124,VALID,1.26853,
2002-03-12, 03:03:00,VALID,917.298,VALID,0,VALID,92.6428,VALID,-0.0169808,VALID,19.5454,VALID,124,VALID,1.58847,
2002-03-12, 03:04:00,VALID,917.3,VALID,0,VALID,92.466,VALID,-0.0169808,VALID,19.5683,VALID,137,VALID,1.36558,
2002-03-12, 03:05:00,VALID,917.297,VALID,0,VALID,92.3083,VALID,0,VALID,19.5968,VALID,133,VALID,1.49844,
2002-03-12, 03:06:00,VALID,917.294,VALID,0,VALID,92.0731,VALID,0,VALID,19.6388,VALID,135,VALID,1.27183,
2002-03-12, 03:07:00,VALID,917.294,VALID,0,VALID,91.7971,VALID,0,VALID,19.7002,VALID,134,VALID,1.33699,
2002-03-12, 03:08:00,VALID,917.289,VALID,0,VALID,91.5072,VALID,-0.0169808,VALID,19.7527,VALID,135,VALID,1.23088,
2002-03-12, 03:09:00,VALID,917.282,VALID,0,VALID,91.2631,VALID,-0.0339617,VALID,19.7845,VALID,129,VALID,1.19844,
2002-03-12, 03:10:00,VALID,917.269,VALID,0,VALID,91.1715,VALID,0,VALID,19.7907,VALID,138,VALID,1.11498,
2002-03-12, 03:11:00,VALID,917.275,VALID,0,VALID,91.1206,VALID,0,VALID,19.8004,VALID,134,VALID,1.55469,
2002-03-12, 03:12:00,VALID,917.285,VALID,0,VALID,90.9744,VALID,-0.0169808,VALID,19.8101,VALID,131,VALID,1.82834,
2002-03-12, 03:13:00,VALID,917.288,VALID,0,VALID,90.7913,VALID,0,VALID,19.8526,VALID,134,VALID,1.39823,
2002-03-12, 03:14:00,VALID,917.292,VALID,0,VALID,90.7264,VALID,-0.0169808,VALID,19.8588,VALID,109,VALID,1.29888,
2002-03-12, 03:15:00,VALID,917.308,VALID,0,VALID,90.8676,VALID,0,VALID,19.8749,VALID,121,VALID,1.83184,
2002-03-12, 03:16:00,VALID,917.287,VALID,0,VALID,90.6323,VALID,0,VALID,19.9105,VALID,152,VALID,1.81071,
2002-03-12, 03:17:00,VALID,917.267,VALID,0,VALID,90.4238,VALID,0,VALID,19.9331,VALID,134,VALID,1.20249,
2002-03-12, 03:18:00,VALID,917.292,VALID,0,VALID,90.3437,VALID,-0.0169808,VALID,19.9425,VALID,108,VALID,1.64775,
2002-03-12, 03:19:00,VALID,917.274,VALID,0,VALID,90.5192,VALID,0,VALID,19.9328,VALID,110,VALID,1.24107,
2002-03-12, 03:20:00,VALID,917.281,VALID,0,VALID,90.7404,VALID,0,VALID,19.9201,VALID,104,VALID,1.3776,
2002-03-12, 03:21:00,VALID,917.274,VALID,0,VALID,90.6451,VALID,0.0169808,VALID,19.9363,VALID,120,VALID,1.89379,
2002-03-12, 03:22:00,VALID,917.254,VALID,0,VALID,90.3475,VALID,0,VALID,19.978,VALID,100,VALID,1.67887,
2002-03-12, 03:23:00,VALID,917.268,VALID,0,VALID,90.3221,VALID,-0.0169808,VALID,19.9982,VALID,119,VALID,1.47902,
2002-03-12, 03:24:00,VALID,917.248,VALID,0,VALID,90.3183,VALID,0,VALID,19.9845,VALID,116,VALID,1.42188,
2002-03-12, 03:25:00,VALID,917.233,VALID,0,VALID,90.2928,VALID,0,VALID,19.9815,VALID,106,VALID,1.0786,
2002-03-12, 03:26:00,VALID,917.22,VALID,0,VALID,90.2547,VALID,-0.0169808,VALID,19.978,VALID,129,VALID,1.21723,
2002-03-12, 03:27:00,VALID,917.23,VALID,0,VALID,90.3958,VALID,0,VALID,19.9423,VALID,121,VALID,1.21382,
2002-03-12, 03:28:00,VALID,917.222,VALID,0,VALID,90.6501,VALID,0.0169808,VALID,19.8973,VALID,112,VALID,1.32893,
2002-03-12, 03:29:00,VALID,917.233,VALID,0,VALID,90.7633,VALID,0,VALID,19.8655,VALID,108,VALID,0.920508,
2002-03-12, 03:30:00,VALID,917.224,VALID,0,VALID,91.0952,VALID,-0.0509425,VALID,19.8138,VALID,118,VALID,1.31161,
2002-03-12, 03:31:00,VALID,917.234,VALID,0,VALID,91.3699,VALID,0,VALID,19.778,VALID,106,VALID,1.09269,
2002-03-12, 03:32:00,VALID,917.246,VALID,0,VALID,91.5314,VALID,0,VALID,19.739,VALID,116,VALID,1.01172,
2002-03-12, 03:33:00,VALID,917.243,VALID,0,VALID,91.614,VALID,0,VALID,19.7228,VALID,123,VALID,1.33482,